STARLINK-32680 (62423 NORAD) Tracking and Keplerian Element Data

This shows tracking and keplerian element data for the satellite.

Feedback or suggestion? Click here.




ElementValue
Catalog62423
NameSTARLINK-32680
Epoch Orbit674
Epoch Day35.08151141
Epoch Year2025
RAAN58.8815
Inclination42.9987
Eccentricity8.96E-05
Argument of Perigee267.6244
Mean Anonmoly92.451
Mean Motion15.40711515
Decay Rate-2.49E-05
L11 62423U 24249Q 25035.08151141 -.00002490 00000+0 -52345-4 0 9993
L22 62423 42.9987 58.8815 0000896 267.6244 92.4510 15.40711515 6745



Live tracking and technical data element details for STARLINK-32680 (NORAD 62423). STARLINK-32680 can be tracked NOW for your location showing map with azimuth and elevation plus other details from your city location.







IsCatalogInMostPopularTable: catalog: 62423, numindb: 14
Update: records affected: 1



GetName: 62423 STARLINK-32680

Hit Count: updated at: Sun, 18 May 2025 23:18:36 GMT